owner,sensor,date,latitude,longitude,air_temperature,qcFlag 
TABS,ioos:station:wmo:42047:1,2015-03-15T00:00:00Z,27.8966,-93.5973,5.9,11144222 
TABS,ioos:station:wmo:42047:1,2015-03-15T00:30:00Z,27.8966,-93.5973,5.1,11144222 
TABS,ioos:station:wmo:42047:1,2015-03-15T01:00:00Z,27.8966,-93.5973,5.0,11144222 
TABS,ioos:station:wmo:42047:1,2015-03-15T01:30:00Z,27.8966,-93.5973,5.1,11144222 
TABS,ioos:station:wmo:42047:1,2015-03-15T02:00:00Z,27.8966,-93.5973,5.0,11144222 
TABS,ioos:station:wmo:42047:1,2015-03-15T02:30:00Z,27.8966,-93.5973,4.6,11144222 
TABS,ioos:station:wmo:42047:1,2015-03-15T03:00:00Z,27.8966,-93.5973,5.0,11144222 
TABS,ioos:station:wmo:42047:1,2015-03-15T03:30:00Z,27.8966,-93.5973,5.0,11144222 
TABS,ioos:station:wmo:42047:1,2015-03-15T04:00:00Z,27.8966,-93.5973,4.9,11144222 
TABS,ioos:station:wmo:42047:1,2015-03-15T04:30:00Z,27.8966,-93.5973,5.0,11144222 
TABS,ioos:station:wmo:42047:1,2015-03-15T05:00:00Z,27.8966,-93.5973,4.9,11144222 
TABS,ioos:station:wmo:42047:1,2015-03-15T05:30:00Z,27.8966,-93.5973,5.0,11144222 
TABS,ioos:station:wmo:42047:1,2015-03-15T06:00:00Z,27.8966,-93.5973,4.9,11144222 
TABS,ioos:station:wmo:42047:1,2015-03-15T06:30:00Z,27.8966,-93.5973,5.0,11144222 
TABS,ioos:station:wmo:42047:1,2015-03-15T07:00:00Z,27.8966,-93.5973,5.1,11144222 
TABS,ioos:station:wmo:42047:1,2015-03-15T07:30:00Z,27.8966,-93.5973,5.1,11144222 
TABS,ioos:station:wmo:42047:1,2015-03-15T08:00:00Z,27.8966,-93.5973,5.1,11144222 
TABS,ioos:station:wmo:42047:1,2015-03-15T08:30:00Z,27.8966,-93.5973,5.1,11144222 
TABS,ioos:station:wmo:42047:1,2015-03-15T09:00:00Z,27.8966,-93.5973,4.7,11144222 
TABS,ioos:station:wmo:42047:1,2015-03-15T09:30:00Z,27.8966,-93.5973,4.8,11144222 
TABS,ioos:station:wmo:42047:1,2015-03-15T10:00:00Z,27.8966,-93.5973,4.8,11144222 
TABS,ioos:station:wmo:42047:1,2015-03-15T10:30:00Z,27.8966,-93.5973,4.6,11144222 
TABS,ioos:station:wmo:42047:1,2015-03-15T11:00:00Z,27.8966,-93.5973,4.3,11144222 
TABS,ioos:station:wmo:42047:1,2015-03-15T11:30:00Z,27.8966,-93.5973,4.2,11144222 
TABS,ioos:station:wmo:42047:1,2015-03-15T12:00:00Z,27.8966,-93.5973,4.0,11144222 
TABS,ioos:station:wmo:42047:1,2015-03-15T12:30:00Z,27.8966,-93.5973,4.1,11144222 
TABS,ioos:station:wmo:42047:1,2015-03-15T13:00:00Z,27.8966,-93.5973,4.0,11144222 
TABS,ioos:station:wmo:42047:1,2015-03-15T13:30:00Z,27.8966,-93.5973,4.4,11144222 
TABS,ioos:station:wmo:42047:1,2015-03-15T14:00:00Z,27.8966,-93.5973,4.4,11144222 
TABS,ioos:station:wmo:42047:1,2015-03-15T14:30:00Z,27.8966,-93.5973,4.9,11144222 
TABS,ioos:station:wmo:42047:1,2015-03-15T15:00:00Z,27.8966,-93.5973,4.9,11144222 
TABS,ioos:station:wmo:42047:1,2015-03-15T15:30:00Z,27.8966,-93.5973,5.2,11144222 
TABS,ioos:station:wmo:42047:1,2015-03-15T16:00:00Z,27.8966,-93.5973,5.3,11144222 
TABS,ioos:station:wmo:42047:1,2015-03-15T16:30:00Z,27.8966,-93.5973,5.3,11144222 
TABS,ioos:station:wmo:42047:1,2015-03-15T17:00:00Z,27.8966,-93.5973,5.4,11144222 
TABS,ioos:station:wmo:42047:1,2015-03-15T17:30:00Z,27.8966,-93.5973,5.4,11144222 
TABS,ioos:station:wmo:42047:1,2015-03-15T18:00:00Z,27.8966,-93.5973,5.3,11144222 
TABS,ioos:station:wmo:42047:1,2015-03-15T18:30:00Z,27.8966,-93.5973,5.2,11144222 
TABS,ioos:station:wmo:42047:1,2015-03-15T19:00:00Z,27.8966,-93.5973,5.4,11144222 
TABS,ioos:station:wmo:42047:1,2015-03-15T19:30:00Z,27.8966,-93.5973,5.4,11144222 
TABS,ioos:station:wmo:42047:1,2015-03-15T20:00:00Z,27.8966,-93.5973,5.5,11144222 
TABS,ioos:station:wmo:42047:1,2015-03-15T20:30:00Z,27.8966,-93.5973,5.5,11144222 
TABS,ioos:station:wmo:42047:1,2015-03-15T21:00:00Z,27.8966,-93.5973,5.3,11144222 
TABS,ioos:station:wmo:42047:1,2015-03-15T21:30:00Z,27.8966,-93.5973,5.3,11144222 
TABS,ioos:station:wmo:42047:1,2015-03-15T22:00:00Z,27.8966,-93.5973,5.4,11144222 
TABS,ioos:station:wmo:42047:1,2015-03-15T22:30:00Z,27.8966,-93.5973,5.4,11144222 
TABS,ioos:station:wmo:42047:1,2015-03-15T23:00:00Z,27.8966,-93.5973,5.4,11144222 
TABS,ioos:station:wmo:42047:1,2015-03-15T23:30:00Z,27.8966,-93.5973,5.0,11144222 
TABS,ioos:station:wmo:42047:1,2015-03-16T00:00:00Z,27.8966,-93.5973,4.8,11144222 
TABS,ioos:station:wmo:42047:1,2015-03-16T00:30:00Z,27.8966,-93.5973,5.0,11144222 
TABS,ioos:station:wmo:42047:1,2015-03-16T01:00:00Z,27.8966,-93.5973,4.9,11144222 
TABS,ioos:station:wmo:42047:1,2015-03-16T01:30:00Z,27.8966,-93.5973,4.9,11144222 
TABS,ioos:station:wmo:42047:1,2015-03-16T02:00:00Z,27.8966,-93.5973,4.8,11144222 
TABS,ioos:station:wmo:42047:1,2015-03-16T02:30:00Z,27.8966,-93.5973,4.7,11144222 
TABS,ioos:station:wmo:42047:1,2015-03-16T03:00:00Z,27.8966,-93.5973,4.6,11144222 
TABS,ioos:station:wmo:42047:1,2015-03-16T03:30:00Z,27.8966,-93.5973,4.6,11144222 
TABS,ioos:station:wmo:42047:1,2015-03-16T04:00:00Z,27.8966,-93.5973,4.5,11144222 
TABS,ioos:station:wmo:42047:1,2015-03-16T04:30:00Z,27.8966,-93.5973,4.5,11144222 
TABS,ioos:station:wmo:42047:1,2015-03-16T05:00:00Z,27.8966,-93.5973,4.7,11144222 
TABS,ioos:station:wmo:42047:1,2015-03-16T05:30:00Z,27.8966,-93.5973,4.6,11144222 
TABS,ioos:station:wmo:42047:1,2015-03-16T06:00:00Z,27.8966,-93.5973,4.5,11144222 
TABS,ioos:station:wmo:42047:1,2015-03-16T06:30:00Z,27.8966,-93.5973,4.7,11144222 
TABS,ioos:station:wmo:42047:1,2015-03-16T07:00:00Z,27.8966,-93.5973,4.6,11144222 
TABS,ioos:station:wmo:42047:1,2015-03-16T07:30:00Z,27.8966,-93.5973,4.6,11144222 
TABS,ioos:station:wmo:42047:1,2015-03-16T08:00:00Z,27.8966,-93.5973,4.5,11144222 
TABS,ioos:station:wmo:42047:1,2015-03-16T08:30:00Z,27.8966,-93.5973,4.7,11144222 
TABS,ioos:station:wmo:42047:1,2015-03-16T09:00:00Z,27.8966,-93.5973,4.6,11144222 
TABS,ioos:station:wmo:42047:1,2015-03-16T09:30:00Z,27.8966,-93.5973,4.7,11144222 
TABS,ioos:station:wmo:42047:1,2015-03-16T10:00:00Z,27.8966,-93.5973,4.6,11144222 
TABS,ioos:station:wmo:42047:1,2015-03-16T10:30:00Z,27.8966,-93.5973,4.7,11144222 
TABS,ioos:station:wmo:42047:1,2015-03-16T11:00:00Z,27.8966,-93.5973,4.6,11144222 
TABS,ioos:station:wmo:42047:1,2015-03-16T11:30:00Z,27.8966,-93.5973,4.6,11144222 
TABS,ioos:station:wmo:42047:1,2015-03-16T12:00:00Z,27.8966,-93.5973,4.5,11144222 
TABS,ioos:station:wmo:42047:1,2015-03-16T12:30:00Z,27.8966,-93.5973,4.3,11144222 
TABS,ioos:station:wmo:42047:1,2015-03-16T13:00:00Z,27.8966,-93.5973,4.2,11144222 
TABS,ioos:station:wmo:42047:1,2015-03-16T13:30:00Z,27.8966,-93.5973,4.4,11144222 
TABS,ioos:station:wmo:42047:1,2015-03-16T14:00:00Z,27.8966,-93.5973,4.9,11144222 
TABS,ioos:station:wmo:42047:1,2015-03-16T14:30:00Z,27.8966,-93.5973,5.0,11144222 
TABS,ioos:station:wmo:42047:1,2015-03-16T15:00:00Z,27.8966,-93.5973,6.5,11144222 
TABS,ioos:station:wmo:42047:1,2015-03-16T15:30:00Z,27.8966,-93.5973,7.0,11144222 
TABS,ioos:station:wmo:42047:1,2015-03-16T16:00:00Z,27.8966,-93.5973,7.0,11144222 
TABS,ioos:station:wmo:42047:1,2015-03-16T16:30:00Z,27.8966,-93.5973,7.0,11144222 
TABS,ioos:station:wmo:42047:1,2015-03-16T17:00:00Z,27.8966,-93.5973,6.3,11144222 
TABS,ioos:station:wmo:42047:1,2015-03-16T17:30:00Z,27.8966,-93.5973,6.5,11144222 
TABS,ioos:station:wmo:42047:1,2015-03-16T18:00:00Z,27.8966,-93.5973,6.3,11144222 
TABS,ioos:station:wmo:42047:1,2015-03-16T18:30:00Z,27.8966,-93.5973,6.4,11144222 
TABS,ioos:station:wmo:42047:1,2015-03-16T19:00:00Z,27.8966,-93.5973,6.5,11144222 
TABS,ioos:station:wmo:42047:1,2015-03-16T19:30:00Z,27.8966,-93.5973,6.9,11144222 
TABS,ioos:station:wmo:42047:1,2015-03-16T20:00:00Z,27.8966,-93.5973,7.5,11144222 
TABS,ioos:station:wmo:42047:1,2015-03-16T20:30:00Z,27.8966,-93.5973,6.7,11144222 
TABS,ioos:station:wmo:42047:1,2015-03-16T21:00:00Z,27.8966,-93.5973,7.1,11144222 
TABS,ioos:station:wmo:42047:1,2015-03-16T21:30:00Z,27.8966,-93.5973,7.4,11144222 
TABS,ioos:station:wmo:42047:1,2015-03-16T22:00:00Z,27.8966,-93.5973,6.6,11144222 
TABS,ioos:station:wmo:42047:1,2015-03-16T22:30:00Z,27.8966,-93.5973,6.8,11144222 
TABS,ioos:station:wmo:42047:1,2015-03-16T23:00:00Z,27.8966,-93.5973,6.4,11144222 
TABS,ioos:station:wmo:42047:1,2015-03-16T23:30:00Z,27.8966,-93.5973,6.1,11144222 
TABS,ioos:station:wmo:42047:1,2015-03-17T00:00:00Z,27.8966,-93.5973,5.9,11144222 
TABS,ioos:station:wmo:42047:1,2015-03-17T00:30:00Z,27.8966,-93.5973,5.6,11144222 
TABS,ioos:station:wmo:42047:1,2015-03-17T01:00:00Z,27.8966,-93.5973,5.5,11144222 
TABS,ioos:station:wmo:42047:1,2015-03-17T01:30:00Z,27.8966,-93.5973,5.5,11144222 
TABS,ioos:station:wmo:42047:1,2015-03-17T02:00:00Z,27.8966,-93.5973,5.3,11144222 
TABS,ioos:station:wmo:42047:1,2015-03-17T02:30:00Z,27.8966,-93.5973,2.3,11144222 
TABS,ioos:station:wmo:42047:1,2015-03-17T03:00:00Z,27.8966,-93.5973,5.3,11144222 
TABS,ioos:station:wmo:42047:1,2015-03-17T03:30:00Z,27.8966,-93.5973,5.3,11144222 
TABS,ioos:station:wmo:42047:1,2015-03-17T04:00:00Z,27.8966,-93.5973,5.2,11144222 
TABS,ioos:station:wmo:42047:1,2015-03-17T04:30:00Z,27.8966,-93.5973,5.3,11144222 
TABS,ioos:station:wmo:42047:1,2015-03-17T05:00:00Z,27.8966,-93.5973,5.2,11144222 
TABS,ioos:station:wmo:42047:1,2015-03-17T05:30:00Z,27.8966,-93.5973,5.3,11144222 
TABS,ioos:station:wmo:42047:1,2015-03-17T06:00:00Z,27.8966,-93.5973,5.1,11144222 
TABS,ioos:station:wmo:42047:1,2015-03-17T06:30:00Z,27.8966,-93.5973,5.2,11144222 
TABS,ioos:station:wmo:42047:1,2015-03-17T07:00:00Z,27.8966,-93.5973,5.0,11144222 
TABS,ioos:station:wmo:42047:1,2015-03-17T07:30:00Z,27.8966,-93.5973,5.1,11144222 
TABS,ioos:station:wmo:42047:1,2015-03-17T08:00:00Z,27.8966,-93.5973,5.0,11144222 
TABS,ioos:station:wmo:42047:1,2015-03-17T08:30:00Z,27.8966,-93.5973,5.1,11144222 
TABS,ioos:station:wmo:42047:1,2015-03-17T09:00:00Z,27.8966,-93.5973,4.8,11144222 
TABS,ioos:station:wmo:42047:1,2015-03-17T09:30:00Z,27.8966,-93.5973,5.1,11144222 
TABS,ioos:station:wmo:42047:1,2015-03-17T10:00:00Z,27.8966,-93.5973,5.1,11144222 
TABS,ioos:station:wmo:42047:1,2015-03-17T10:30:00Z,27.8966,-93.5973,5.2,11144222 
TABS,ioos:station:wmo:42047:1,2015-03-17T11:00:00Z,27.8966,-93.5973,5.1,11144222 
TABS,ioos:station:wmo:42047:1,2015-03-17T11:30:00Z,27.8966,-93.5973,5.2,11144222 
TABS,ioos:station:wmo:42047:1,2015-03-17T12:00:00Z,27.8966,-93.5973,5.2,11144222 
TABS,ioos:station:wmo:42047:1,2015-03-17T12:30:00Z,27.8966,-93.5973,5.3,11144222 
TABS,ioos:station:wmo:42047:1,2015-03-17T13:00:00Z,27.8966,-93.5973,5.3,11144222 
TABS,ioos:station:wmo:42047:1,2015-03-17T13:30:00Z,27.8966,-93.5973,5.6,11144222 
TABS,ioos:station:wmo:42047:1,2015-03-17T14:00:00Z,27.8966,-93.5973,6.0,11144222 
TABS,ioos:station:wmo:42047:1,2015-03-17T14:30:00Z,27.8966,-93.5973,6.0,11144222 
TABS,ioos:station:wmo:42047:1,2015-03-17T15:00:00Z,27.8966,-93.5973,6.0,11144222 
TABS,ioos:station:wmo:42047:1,2015-03-17T15:30:00Z,27.8966,-93.5973,7.1,11144222 
TABS,ioos:station:wmo:42047:1,2015-03-17T16:00:00Z,27.8966,-93.5973,6.2,11144222 
TABS,ioos:station:wmo:42047:1,2015-03-17T16:30:00Z,27.8966,-93.5973,7.1,11144222 
TABS,ioos:station:wmo:42047:1,2015-03-17T17:00:00Z,27.8966,-93.5973,6.6,11144222 
TABS,ioos:station:wmo:42047:1,2015-03-17T17:30:00Z,27.8966,-93.5973,5.8,11144222 
TABS,ioos:station:wmo:42047:1,2015-03-17T18:00:00Z,27.8966,-93.5973,6.9,11144222 
TABS,ioos:station:wmo:42047:1,2015-03-17T18:30:00Z,27.8966,-93.5973,7.0,11144222 
TABS,ioos:station:wmo:42047:1,2015-03-17T19:00:00Z,27.8966,-93.5973,7.2,11144222 
TABS,ioos:station:wmo:42047:1,2015-03-17T19:30:00Z,27.8966,-93.5973,6.6,11144222 
TABS,ioos:station:wmo:42047:1,2015-03-17T20:00:00Z,27.8966,-93.5973,6.7,11144222 
TABS,ioos:station:wmo:42047:1,2015-03-17T20:30:00Z,27.8966,-93.5973,6.9,11144222 
TABS,ioos:station:wmo:42047:1,2015-03-17T21:00:00Z,27.8966,-93.5973,6.9,11144222 
TABS,ioos:station:wmo:42047:1,2015-03-17T21:30:00Z,27.8966,-93.5973,6.9,11144222 
TABS,ioos:station:wmo:42047:1,2015-03-17T22:00:00Z,27.8966,-93.5973,7.4,11144222 
TABS,ioos:station:wmo:42047:1,2015-03-17T22:30:00Z,27.8966,-93.5973,7.8,11144222 
TABS,ioos:station:wmo:42047:1,2015-03-17T23:00:00Z,27.8966,-93.5973,7.4,11144222 
TABS,ioos:station:wmo:42047:1,2015-03-17T23:30:00Z,27.8966,-93.5973,7.1,11144222 
TABS,ioos:station:wmo:42047:1,2015-03-18T00:00:00Z,27.8966,-93.5973,6.6,11144222 
TABS,ioos:station:wmo:42047:1,2015-03-18T00:30:00Z,27.8966,-93.5973,5.9,11144222 
TABS,ioos:station:wmo:42047:1,2015-03-18T01:00:00Z,27.8966,-93.5973,5.8,11144222 
TABS,ioos:station:wmo:42047:1,2015-03-18T01:30:00Z,27.8966,-93.5973,5.8,11144222 
TABS,ioos:station:wmo:42047:1,2015-03-18T02:00:00Z,27.8966,-93.5973,5.5,11144222 
TABS,ioos:station:wmo:42047:1,2015-03-18T02:30:00Z,27.8966,-93.5973,5.5,11144222 
TABS,ioos:station:wmo:42047:1,2015-03-18T03:00:00Z,27.8966,-93.5973,5.3,11144222 
TABS,ioos:station:wmo:42047:1,2015-03-18T03:30:00Z,27.8966,-93.5973,5.5,11144222 
TABS,ioos:station:wmo:42047:1,2015-03-18T04:00:00Z,27.8966,-93.5973,5.3,11144222 
TABS,ioos:station:wmo:42047:1,2015-03-18T04:30:00Z,27.8966,-93.5973,5.2,11144222 
TABS,ioos:station:wmo:42047:1,2015-03-18T05:00:00Z,27.8966,-93.5973,5.1,11144222 
TABS,ioos:station:wmo:42047:1,2015-03-18T05:30:00Z,27.8966,-93.5973,5.2,11144222 
TABS,ioos:station:wmo:42047:1,2015-03-18T06:00:00Z,27.8966,-93.5973,5.1,11144222 
TABS,ioos:station:wmo:42047:1,2015-03-18T06:30:00Z,27.8966,-93.5973,5.3,11144222 
TABS,ioos:station:wmo:42047:1,2015-03-18T07:00:00Z,27.8966,-93.5973,5.3,11144222 
TABS,ioos:station:wmo:42047:1,2015-03-18T07:30:00Z,27.8966,-93.5973,5.4,11144222 
TABS,ioos:station:wmo:42047:1,2015-03-18T08:00:00Z,27.8966,-93.5973,5.2,11144222 
TABS,ioos:station:wmo:42047:1,2015-03-18T08:30:00Z,27.8966,-93.5973,5.2,11144222 
TABS,ioos:station:wmo:42047:1,2015-03-18T09:00:00Z,27.8966,-93.5973,5.2,11144222 
TABS,ioos:station:wmo:42047:1,2015-03-18T09:30:00Z,27.8966,-93.5973,5.3,11144222 
TABS,ioos:station:wmo:42047:1,2015-03-18T10:00:00Z,27.8966,-93.5973,5.3,11144222 
TABS,ioos:station:wmo:42047:1,2015-03-18T10:30:00Z,27.8966,-93.5973,5.2,11144222 
TABS,ioos:station:wmo:42047:1,2015-03-18T11:00:00Z,27.8966,-93.5973,5.2,11144222 
TABS,ioos:station:wmo:42047:1,2015-03-18T11:30:00Z,27.8966,-93.5973,5.3,11144222 
TABS,ioos:station:wmo:42047:1,2015-03-18T12:00:00Z,27.8966,-93.5973,5.2,11144222 
TABS,ioos:station:wmo:42047:1,2015-03-18T12:30:00Z,27.8966,-93.5973,5.2,11144222 
TABS,ioos:station:wmo:42047:1,2015-03-18T13:00:00Z,27.8966,-93.5973,5.6,11144222 
TABS,ioos:station:wmo:42047:1,2015-03-18T13:30:00Z,27.8966,-93.5973,5.6,11144222 
TABS,ioos:station:wmo:42047:1,2015-03-18T14:00:00Z,27.8966,-93.5973,5.8,11144222 
TABS,ioos:station:wmo:42047:1,2015-03-18T14:30:00Z,27.8966,-93.5973,6.3,11144222 
TABS,ioos:station:wmo:42047:1,2015-03-18T15:00:00Z,27.8966,-93.5973,5.9,11144222 
TABS,ioos:station:wmo:42047:1,2015-03-18T15:30:00Z,27.8966,-93.5973,5.7,11144222 
TABS,ioos:station:wmo:42047:1,2015-03-18T16:00:00Z,27.8966,-93.5973,6.4,11144222 
TABS,ioos:station:wmo:42047:1,2015-03-18T16:30:00Z,27.8966,-93.5973,5.9,11144222 
TABS,ioos:station:wmo:42047:1,2015-03-18T17:00:00Z,27.8966,-93.5973,6.5,11144222 
TABS,ioos:station:wmo:42047:1,2015-03-18T17:30:00Z,27.8966,-93.5973,6.5,11144222 
TABS,ioos:station:wmo:42047:1,2015-03-18T18:00:00Z,27.8966,-93.5973,5.8,11144222 
TABS,ioos:station:wmo:42047:1,2015-03-18T18:30:00Z,27.8966,-93.5973,5.5,11144222 
TABS,ioos:station:wmo:42047:1,2015-03-18T19:00:00Z,27.8966,-93.5973,6.0,11144222 
TABS,ioos:station:wmo:42047:1,2015-03-18T19:30:00Z,27.8966,-93.5973,6.2,11144222 
TABS,ioos:station:wmo:42047:1,2015-03-18T20:00:00Z,27.8966,-93.5973,6.2,11144222 
TABS,ioos:station:wmo:42047:1,2015-03-18T20:30:00Z,27.8966,-93.5973,6.9,11144222 
TABS,ioos:station:wmo:42047:1,2015-03-18T21:00:00Z,27.8966,-93.5973,6.6,11144222 
TABS,ioos:station:wmo:42047:1,2015-03-18T21:30:00Z,27.8966,-93.5973,6.9,11144222 
TABS,ioos:station:wmo:42047:1,2015-03-18T22:00:00Z,27.8966,-93.5973,6.7,11144222 
TABS,ioos:station:wmo:42047:1,2015-03-18T22:30:00Z,27.8966,-93.5973,7.4,11144222 
TABS,ioos:station:wmo:42047:1,2015-03-18T23:00:00Z,27.8966,-93.5973,6.9,11144222 
TABS,ioos:station:wmo:42047:1,2015-03-18T23:30:00Z,27.8966,-93.5973,6.8,11144222 
TABS,ioos:station:wmo:42047:1,2015-03-19T00:00:00Z,27.8966,-93.5973,6.1,11144222 
TABS,ioos:station:wmo:42047:1,2015-03-19T00:30:00Z,27.8966,-93.5973,5.7,11144222 
TABS,ioos:station:wmo:42047:1,2015-03-19T01:00:00Z,27.8966,-93.5973,5.5,11144222 
TABS,ioos:station:wmo:42047:1,2015-03-19T01:30:00Z,27.8966,-93.5973,5.5,11144222 
TABS,ioos:station:wmo:42047:1,2015-03-19T02:00:00Z,27.8966,-93.5973,5.3,11144222 
TABS,ioos:station:wmo:42047:1,2015-03-19T02:30:00Z,27.8966,-93.5973,5.4,11144222 
TABS,ioos:station:wmo:42047:1,2015-03-19T03:00:00Z,27.8966,-93.5973,5.3,11144222 
TABS,ioos:station:wmo:42047:1,2015-03-19T03:30:00Z,27.8966,-93.5973,5.3,11144222 
TABS,ioos:station:wmo:42047:1,2015-03-19T04:00:00Z,27.8966,-93.5973,2.2,11144222 
TABS,ioos:station:wmo:42047:1,2015-03-19T04:30:00Z,27.8966,-93.5973,5.3,11144222 
TABS,ioos:station:wmo:42047:1,2015-03-19T05:00:00Z,27.8966,-93.5973,5.2,11144222 
TABS,ioos:station:wmo:42047:1,2015-03-19T05:30:00Z,27.8966,-93.5973,5.2,11144222 
TABS,ioos:station:wmo:42047:1,2015-03-19T06:00:00Z,27.8966,-93.5973,5.1,11144222 
TABS,ioos:station:wmo:42047:1,2015-03-19T06:30:00Z,27.8966,-93.5973,5.3,11144222 
TABS,ioos:station:wmo:42047:1,2015-03-19T07:00:00Z,27.8966,-93.5973,5.3,11144222 
TABS,ioos:station:wmo:42047:1,2015-03-19T07:30:00Z,27.8966,-93.5973,5.3,11144222 
TABS,ioos:station:wmo:42047:1,2015-03-19T08:00:00Z,27.8966,-93.5973,5.2,11144222 
TABS,ioos:station:wmo:42047:1,2015-03-19T08:30:00Z,27.8966,-93.5973,5.3,11144222 
TABS,ioos:station:wmo:42047:1,2015-03-19T09:00:00Z,27.8966,-93.5973,5.3,11144222 
TABS,ioos:station:wmo:42047:1,2015-03-19T09:30:00Z,27.8966,-93.5973,5.4,11144222 
TABS,ioos:station:wmo:42047:1,2015-03-19T10:00:00Z,27.8966,-93.5973,5.3,11144222 
TABS,ioos:station:wmo:42047:1,2015-03-19T10:30:00Z,27.8966,-93.5973,5.3,11144222 
TABS,ioos:station:wmo:42047:1,2015-03-19T11:00:00Z,27.8966,-93.5973,5.2,11144222 
TABS,ioos:station:wmo:42047:1,2015-03-19T11:30:00Z,27.8966,-93.5973,5.2,11144222 
TABS,ioos:station:wmo:42047:1,2015-03-19T12:00:00Z,27.8966,-93.5973,5.1,11144222 
TABS,ioos:station:wmo:42047:1,2015-03-19T12:30:00Z,27.8966,-93.5973,5.1,11144222 
TABS,ioos:station:wmo:42047:1,2015-03-19T13:00:00Z,27.8966,-93.5973,5.6,11144222 
TABS,ioos:station:wmo:42047:1,2015-03-19T13:30:00Z,27.8966,-93.5973,8.0,11144222 
TABS,ioos:station:wmo:42047:1,2015-03-19T14:00:00Z,27.8966,-93.5973,7.0,11144222 
TABS,ioos:station:wmo:42047:1,2015-03-19T14:30:00Z,27.8966,-93.5973,7.5,11144222 
TABS,ioos:station:wmo:42047:1,2015-03-19T15:00:00Z,27.8966,-93.5973,7.6,11144222 
TABS,ioos:station:wmo:42047:1,2015-03-19T15:30:00Z,27.8966,-93.5973,7.4,11144222 
TABS,ioos:station:wmo:42047:1,2015-03-19T16:00:00Z,27.8966,-93.5973,7.8,11144222 
TABS,ioos:station:wmo:42047:1,2015-03-19T16:30:00Z,27.8966,-93.5973,8.4,11144222 
TABS,ioos:station:wmo:42047:1,2015-03-19T17:00:00Z,27.8966,-93.5973,7.6,11144222 
TABS,ioos:station:wmo:42047:1,2015-03-19T17:30:00Z,27.8966,-93.5973,8.2,11144222 
TABS,ioos:station:wmo:42047:1,2015-03-19T18:00:00Z,27.8966,-93.5973,8.2,11144222 
TABS,ioos:station:wmo:42047:1,2015-03-19T18:30:00Z,27.8966,-93.5973,8.4,11144222 
TABS,ioos:station:wmo:42047:1,2015-03-19T19:00:00Z,27.8966,-93.5973,8.6,11144222 
TABS,ioos:station:wmo:42047:1,2015-03-19T19:30:00Z,27.8966,-93.5973,8.9,11144222 
TABS,ioos:station:wmo:42047:1,2015-03-19T20:00:00Z,27.8966,-93.5973,8.9,11144222 
TABS,ioos:station:wmo:42047:1,2015-03-19T20:30:00Z,27.8966,-93.5973,9.1,11144222 
TABS,ioos:station:wmo:42047:1,2015-03-19T21:00:00Z,27.8966,-93.5973,8.8,11144222 
TABS,ioos:station:wmo:42047:1,2015-03-19T21:30:00Z,27.8966,-93.5973,9.0,11144222 
TABS,ioos:station:wmo:42047:1,2015-03-19T22:00:00Z,27.8966,-93.5973,7.3,11144222 
TABS,ioos:station:wmo:42047:1,2015-03-19T22:30:00Z,27.8966,-93.5973,6.7,11144222 
TABS,ioos:station:wmo:42047:1,2015-03-19T23:00:00Z,27.8966,-93.5973,6.6,11144222 
TABS,ioos:station:wmo:42047:1,2015-03-19T23:30:00Z,27.8966,-93.5973,7.9,11144222 
TABS,ioos:station:wmo:42047:1,2015-03-20T00:00:00Z,27.8966,-93.5973,6.9,11144222 
TABS,ioos:station:wmo:42047:1,2015-03-20T00:30:00Z,27.8966,-93.5973,6.2,11144222 
TABS,ioos:station:wmo:42047:1,2015-03-20T01:00:00Z,27.8966,-93.5973,6.0,11144222 
TABS,ioos:station:wmo:42047:1,2015-03-20T01:30:00Z,27.8966,-93.5973,6.1,11144222 
TABS,ioos:station:wmo:42047:1,2015-03-20T02:00:00Z,27.8966,-93.5973,6.0,11144222 
TABS,ioos:station:wmo:42047:1,2015-03-20T02:30:00Z,27.8966,-93.5973,6.0,11144222 
TABS,ioos:station:wmo:42047:1,2015-03-20T03:00:00Z,27.8966,-93.5973,5.8,11144222 
TABS,ioos:station:wmo:42047:1,2015-03-20T03:30:00Z,27.8966,-93.5973,5.9,11144222 
TABS,ioos:station:wmo:42047:1,2015-03-20T04:00:00Z,27.8966,-93.5973,5.9,11144222 
TABS,ioos:station:wmo:42047:1,2015-03-20T04:30:00Z,27.8966,-93.5973,6.0,11144222 
TABS,ioos:station:wmo:42047:1,2015-03-20T05:00:00Z,27.8966,-93.5973,5.8,11144222 
TABS,ioos:station:wmo:42047:1,2015-03-20T05:30:00Z,27.8966,-93.5973,5.9,11144222 
TABS,ioos:station:wmo:42047:1,2015-03-20T06:00:00Z,27.8966,-93.5973,5.8,11144222 
TABS,ioos:station:wmo:42047:1,2015-03-20T06:30:00Z,27.8966,-93.5973,5.9,11144222 
TABS,ioos:station:wmo:42047:1,2015-03-20T07:00:00Z,27.8966,-93.5973,5.9,11144222 
TABS,ioos:station:wmo:42047:1,2015-03-20T07:30:00Z,27.8966,-93.5973,5.9,11144222 
TABS,ioos:station:wmo:42047:1,2015-03-20T08:00:00Z,27.8966,-93.5973,5.8,11144222 
TABS,ioos:station:wmo:42047:1,2015-03-20T08:30:00Z,27.8966,-93.5973,5.9,11144222 
TABS,ioos:station:wmo:42047:1,2015-03-20T09:00:00Z,27.8966,-93.5973,5.7,11144222 
TABS,ioos:station:wmo:42047:1,2015-03-20T09:30:00Z,27.8966,-93.5973,5.6,11144222 
TABS,ioos:station:wmo:42047:1,2015-03-20T10:00:00Z,27.8966,-93.5973,5.4,11144222 
TABS,ioos:station:wmo:42047:1,2015-03-20T10:30:00Z,27.8966,-93.5973,5.5,11144222 
TABS,ioos:station:wmo:42047:1,2015-03-20T11:00:00Z,27.8966,-93.5973,5.5,11144222 
TABS,ioos:station:wmo:42047:1,2015-03-20T11:30:00Z,27.8966,-93.5973,5.4,11144222 
TABS,ioos:station:wmo:42047:1,2015-03-20T12:00:00Z,27.8966,-93.5973,5.5,11144222 
TABS,ioos:station:wmo:42047:1,2015-03-20T12:30:00Z,27.8966,-93.5973,5.7,11144222 
TABS,ioos:station:wmo:42047:1,2015-03-20T13:00:00Z,27.8966,-93.5973,6.1,11144222 
TABS,ioos:station:wmo:42047:1,2015-03-20T13:30:00Z,27.8966,-93.5973,6.5,11144222 
TABS,ioos:station:wmo:42047:1,2015-03-20T14:00:00Z,27.8966,-93.5973,7.0,11144222 
TABS,ioos:station:wmo:42047:1,2015-03-20T14:30:00Z,27.8966,-93.5973,7.4,11144222 
TABS,ioos:station:wmo:42047:1,2015-03-20T15:00:00Z,27.8966,-93.5973,8.1,11144222 
TABS,ioos:station:wmo:42047:1,2015-03-20T15:30:00Z,27.8966,-93.5973,7.9,11144222 
TABS,ioos:station:wmo:42047:1,2015-03-20T16:00:00Z,27.8966,-93.5973,8.6,11144222 
TABS,ioos:station:wmo:42047:1,2015-03-20T16:30:00Z,27.8966,-93.5973,8.6,11144222 
TABS,ioos:station:wmo:42047:1,2015-03-20T17:00:00Z,27.8966,-93.5973,8.7,11144222 
TABS,ioos:station:wmo:42047:1,2015-03-20T17:30:00Z,27.8966,-93.5973,8.9,11144222 
TABS,ioos:station:wmo:42047:1,2015-03-20T18:00:00Z,27.8966,-93.5973,9.0,11144222 
TABS,ioos:station:wmo:42047:1,2015-03-20T18:30:00Z,27.8966,-93.5973,8.5,11144222 
TABS,ioos:station:wmo:42047:1,2015-03-20T19:00:00Z,27.8966,-93.5973,7.2,11144222 
TABS,ioos:station:wmo:42047:1,2015-03-20T19:30:00Z,27.8966,-93.5973,9.1,11144222 
TABS,ioos:station:wmo:42047:1,2015-03-20T20:00:00Z,27.8966,-93.5973,9.4,11144222 
TABS,ioos:station:wmo:42047:1,2015-03-20T20:30:00Z,27.8966,-93.5973,9.6,11144222 
TABS,ioos:station:wmo:42047:1,2015-03-20T21:00:00Z,27.8966,-93.5973,9.6,11144222 
TABS,ioos:station:wmo:42047:1,2015-03-20T21:30:00Z,27.8966,-93.5973,9.6,11144222 
TABS,ioos:station:wmo:42047:1,2015-03-20T22:00:00Z,27.8966,-93.5973,10.1,11144222 
TABS,ioos:station:wmo:42047:1,2015-03-20T22:30:00Z,27.8966,-93.5973,10.4,11144222 
TABS,ioos:station:wmo:42047:1,2015-03-20T23:00:00Z,27.8966,-93.5973,8.1,11144222 
TABS,ioos:station:wmo:42047:1,2015-03-20T23:30:00Z,27.8966,-93.5973,7.5,11144222 
TABS,ioos:station:wmo:42047:1,2015-03-21T00:00:00Z,27.8966,-93.5973,7.1,11144222 
TABS,ioos:station:wmo:42047:1,2015-03-21T00:30:00Z,27.8966,-93.5973,6.6,11144222 
TABS,ioos:station:wmo:42047:1,2015-03-21T01:00:00Z,27.8966,-93.5973,6.4,11144222 